TimeCST,TemperatureF,Dew PointF,Humidity,Sea Level PressureIn,VisibilityMPH,Wind Direction,Wind SpeedMPH,Gust SpeedMPH,PrecipitationIn,Events,Conditions,WindDirDegrees,DateUTC
12:53 AM,12.9,9.0,84,30.09,10.0,Calm,Calm,-,N/A,,Overcast,0,2013-02-25 06:53:00
1:53 AM,12.0,7.0,80,30.10,10.0,Calm,Calm,-,N/A,,Clear,0,2013-02-25 07:53:00
2:53 AM,10.9,6.1,81,30.10,10.0,Calm,Calm,-,N/A,,Clear,0,2013-02-25 08:53:00
3:53 AM,10.0,5.0,80,30.10,10.0,Calm,Calm,-,N/A,,Clear,0,2013-02-25 09:53:00
4:53 AM,6.1,1.9,83,30.10,10.0,Calm,Calm,-,N/A,,Clear,0,2013-02-25 10:53:00
5:53 AM,5.0,-0.0,80,30.11,10.0,Calm,Calm,-,N/A,,Clear,0,2013-02-25 11:53:00
6:53 AM,3.9,-2.0,76,30.12,10.0,Calm,Calm,-,N/A,,Clear,0,2013-02-25 12:53:00
7:09 AM,3.2,-2.2,78,30.03,10.0,Calm,Calm,-,N/A,,Partly Cloudy,0,2013-02-25 13:09:00
7:21 AM,1.4,-2.2,85,30.03,10.0,Calm,Calm,-,N/A,,Mostly Cloudy,0,2013-02-25 13:21:00
7:53 AM,3.9,-0.0,84,30.12,10.0,Calm,Calm,-,N/A,,Partly Cloudy,0,2013-02-25 13:53:00
8:53 AM,10.9,9.0,92,30.12,9.0,Calm,Calm,-,N/A,,Clear,0,2013-02-25 14:53:00
9:53 AM,25.0,17.1,72,30.11,10.0,South,3.5,-,N/A,,Overcast,180,2013-02-25 15:53:00
10:44 AM,28.4,17.6,64,30.02,10.0,Variable,4.6,-,N/A,,Overcast,0,2013-02-25 16:44:00
10:53 AM,28.0,17.1,63,30.10,10.0,Variable,5.8,-,N/A,,Overcast,0,2013-02-25 16:53:00
11:17 AM,30.2,17.6,60,30.02,10.0,SSW,3.5,-,N/A,,Overcast,210,2013-02-25 17:17:00
11:44 AM,32.0,19.4,60,30.02,10.0,Variable,4.6,-,N/A,,Scattered Clouds,0,2013-02-25 17:44:00
11:53 AM,32.0,19.9,61,30.09,10.0,West,8.1,-,N/A,,Partly Cloudy,270,2013-02-25 17:53:00
12:53 PM,33.1,19.9,59,30.08,10.0,WSW,6.9,-,0.00,,Partly Cloudy,240,2013-02-25 18:53:00
1:53 PM,34.0,21.0,59,30.07,10.0,Calm,Calm,-,N/A,,Partly Cloudy,0,2013-02-25 19:53:00
2:53 PM,35.1,21.0,57,30.06,10.0,Variable,5.8,-,N/A,,Clear,0,2013-02-25 20:53:00
3:53 PM,35.1,21.0,57,30.06,10.0,West,5.8,-,N/A,,Clear,260,2013-02-25 21:53:00
4:53 PM,32.0,19.9,61,30.08,10.0,WNW,6.9,-,N/A,,Clear,300,2013-02-25 22:53:00
5:53 PM,28.0,19.0,69,30.09,10.0,Calm,Calm,-,N/A,,Clear,0,2013-02-25 23:53:00
6:53 PM,24.1,17.1,75,30.11,10.0,Calm,Calm,-,N/A,,Clear,0,2013-02-26 00:53:00
8:53 PM,16.0,12.0,84,30.11,6.0,Calm,Calm,-,N/A,,Clear,0,2013-02-26 02:53:00
9:53 PM,12.9,9.0,84,30.09,8.0,Calm,Calm,-,N/A,,Clear,0,2013-02-26 03:53:00
10:53 PM,12.0,8.1,84,30.09,9.0,Calm,Calm,-,N/A,,Clear,0,2013-02-26 04:53:00
11:53 PM,8.1,3.0,80,30.08,9.0,Calm,Calm,-,N/A,,Clear,0,2013-02-26 05:53:00